Other Public Products
Issued by NWS Grand Forks, ND

Home | Current Version | Previous Version | Text Only | Print | Product List | Glossary Off
Versions: 1 2 3 4 5 6 7 8 9 10 11 12 13 14 15 16 17 18 19 20 21 22 23 24 25 26 27 28 29 30 31 32 33 34 35 36 37 38 39 40 41 42 43 44 45 46 47 48 49 50

569
FPUS83 KFGF 230810
OPUFGF
PRAIRIE TO PINES WEATHER ROUNDUP
NATIONAL WEATHER SERVICE EASTERN NORTH DAKOTA/GRAND FORKS ND
300 AM CDT FRI JUN 23 2017

 **SATELLITE DATA USED TO AUGMENT SKY COVER AT AUTOMATED STATIONS**
 *****  WEATHER ACROSS EASTERN NORTH DAKOTA  *****

CITY           SKY/WX    TMP DP  RH WIND       PRES   REMARKS
GRAND FORKS    FAIR      60  53  77 W13       29.69S
GRAND FORKS AF MOCLDY    60  52  74 NW15G21   29.70S
GRAND CITY NWS NOT AVBL
BUXTON         NOT AVBL
DEVILS LAKE    NOT AVBL
FARGO          FAIR      56  47  71 W7        29.74S
WAHPETON ARPT  FAIR      55  43  62 W9        29.78S
$$

 *****  WEATHER ACROSS CENTRAL AND WESTERN NORTH DAKOTA  *****

CITY           SKY/WX    TMP DP  RH WIND       PRES   REMARKS
JAMESTOWN      MOCLDY    60  51  72 NW21G30   29.81R
BISMARCK       CLOUDY    58  48  69 NW23G36   29.94S
MINOT          CLOUDY    55  48  77 W21G33    29.92R
MINOT AFB      CLOUDY    54  48  82 NW23G30   29.90R
GARRISON         N/A     53  47  79 NW28G35   29.94S
WILLISTON      CLOUDY    52  46  80 W12       30.06R
DICKINSON      CLOUDY    50  45  83 NW20G29   30.03R
HETTINGER      CLOUDY    53  44  71 W16G26    30.09R
$$

 *****  OTHER OBSERVATIONS NORTHEAST NORTH DAKOTA  *****

CITY           SKY/WX    TMP DP  RH WIND       PRES   REMARKS
WALHALLA       NOT AVBL
LANGDON        FAIR      55  55 100 NW18G30   29.74R
CAVALIER       FAIR      59  52  77 NW14      29.68R
GRAFTON        FAIR      59  54  82 W15G21    29.71R
CANDO          NOT AVBL
FORT TOTTEN      N/A     57  53  87 NW10      29.95S
ROLLA            N/A     54  52  94 NW24G35   29.80R
RUGBY          NOT AVBL
 ***** THE ABOVE OBSERVATIONS ARE NON NWS ARE NOT QUALITY
        CONTROLLED AND MAY MIS-REPORT RAIN FOR SNOW...
$$

 *****  OTHER OBSERVATIONS SOUTHEAST NORTH DAKOTA *****

CITY           SKY/WX    TMP DP  RH WIND       PRES   REMARKS
COOPERSTOWN    PTSUNNY   61  54  77 NW22G32   29.77R
VALLEY CITY    PTSUNNY   61  54  77 NW22G29   29.79F
OAKES          NOT AVBL
GWINNER        MOSUNNY   57  48  72 W9        29.80F
SHEYENNE NWR     N/A     55  46  72 W6        29.95S
BUFFALO        NOT AVBL
WYNDMERE       NOT AVBL
 ***** THE ABOVE OBSERVATIONS ARE NON NWS ARE NOT QUALITY
       CONTROLLED AND MAY MIS-REPORT RAIN FOR SNOW...
$$

  *****  WEATHER ACROSS NORTHERN MINNESOTA  *****

CITY           SKY/WX    TMP DP  RH WIND       PRES   REMARKS
FLAG ISLAND    MOCLDY    55  52  88 W16       29.57S
WARROAD        FAIR      54  48  82 W10       29.62S
ROSEAU           N/A     55  48  76 W8        29.63
HALLOCK        FAIR      57  54  88 NW10      29.66R
THF RVR FALLS  MOCLDY    56  48  74 W12       29.69S
HALSTAD        NOT AVBL
FOSSTON        FAIR      54  46  76 W9        29.71S
BAUDETTE       CLOUDY    56  48  74 W13       29.60S
WASKISH        FAIR      57  50  77 W18G26    29.64S
CROOKSTON      MOCLDY    55  48  76 W8        29.70S
$$
  *****  WEATHER ACROSS CENTRAL AND WEST MINNESOTA  *****

CITY           SKY/WX    TMP DP  RH WIND       PRES   REMARKS
BEMIDJI        FAIR      53  45  72 W8        29.69R
PARK RAPIDS    FAIR      56  42  59 W8        29.71S
WADENA         FAIR      57  43  58 W9        29.72S
DETROIT LAKES  FAIR      55  45  67 W12G18    29.75S
MOORHEAD       FAIR      57  46  67 W12       29.75S
FERGUS FALLS   FAIR      55  46  71 NW12      29.75S
ELBOW LAKE     FAIR      57  45  65 NW9       29.78R
MORRIS MN      FAIR      57  46  67 NW12      29.78R
STAPLES        FAIR      54  43  66 W7        29.72S
WHEATON        FAIR      59  45  58 W13       29.81R
$$
  *****  WEATHER ELSEWHERE ACROSS MINNESOTA  *****

CITY           SKY/WX    TMP DP  RH WIND       PRES   REMARKS
DULUTH         MOCLDY    56  51  84 W12       29.64F
INTRNTL FALLS  MOCLDY    55  45  68 W7        29.59F
ELY            FAIR      55  43  62 W6        29.61S
CLOQUET        FAIR      57  48  72 W8        29.66S
BRAINERD       FAIR      56  46  69 W7        29.71S
HIBBING        FAIR      51  44  77 SW5       29.64S
ALEXANDRIA     FAIR      59  44  57 W13       29.77R
SAINT CLOUD    FAIR      55  53  93 W7        29.72F
MINNEAPOLIS    FAIR      60  55  83 CALM      29.73F
$$

  *****  WEATHER ACROSS SOUTH DAKOTA  *****

CITY           SKY/WX    TMP DP  RH WIND       PRES   REMARKS
SIOUX FALLS    FAIR      57  51  80 NW7       29.84F
BROOKINGS      FAIR      58  50  75 W10       29.85S
WATERTOWN      FAIR      59  45  59 NW16      29.84R
HURON          FAIR      54  47  77 NW9       29.90R
SISSETON         N/A     60  46  59 NW15      29.80R
ABERDEEN       FAIR      57  44  62 W9        29.88S
MITCHELL       FAIR      58  47  66 NW12      29.90R
PIERRE         FAIR      59  43  55 NW20      29.97R
MOBRIDGE       MOCLDY    59  47  64 NW17G26   29.93S
RAPID CITY     MOCLDY    55  37  50 N16G26    30.15R
$$

  *****  SOME WEATHER IN NEARBY STATES *****

CITY           SKY/WX    TMP DP  RH WIND       PRES   REMARKS
GLASGOW MT     FAIR      47  41  80 W8        30.17R
GREAT FALLS MT FAIR      42  35  76 CALM      30.28S
CHEYENNE WY    CLOUDY    56  52  86 NE12      30.20R
SCOTTSBLUFF NE CLOUDY    63  36  36 NE15      30.12R
OMAHA NE       MOCLDY    70  61  73 N12       29.80F
DES MOINES IA  MOCLDY    69  66  90 N10       29.74S
DAVENPORT IA   FAIR      76  72  87 S7        29.65F THUNDER
CHICAGO IL     CLOUDY    76  70  82 SW14G21   29.64F
EAU CLAIRE WI  FAIR      60  59  96 S3        29.71S FOG
LA CROSSE WI   MOCLDY    66  65  96 NW6       29.72F
$$

  *****  SOME NATIONAL WEATHER *****

CITY           SKY/WX    TMP DP  RH WIND       PRES   REMARKS
LA GUARDIA NY  CLOUDY    80  72  76 SW8       29.82F
RALEIGH NC     LGT RAIN  73  72  96 SW5       30.01F
ATLANTA GA     MOCLDY    73  72  96 S7        30.02F
NEW ORLEANS LA MOCLDY    80  77  90 S16       29.87S
OKLAHOMA CITY  FAIR      72  69  90 SW5       29.74S
ALBUQUERQUE NM FAIR      80  20  10 W5        29.96R
SALT LAKE CITY FAIR      67  44  43 N3        30.07S
LOS ANGELES CA CLOUDY    66  61  84 SW5       29.87F
BOISE ID       FAIR      60  35  39 W5        30.12R
SEATTLE WA     FAIR      62  46  55 NE9       30.24R
$$

*** WEATHER ACROSS MANITOBA...SASKATCHEWAN AND ONTARIO ***
                ***ONTARIO***

CITY           SKY/WX    TMP DP  RH WIND       PRES   REMARKS
GERALDTON      MOCLDY    52  50  93 CALM      29.53F
THUNDER BAY    PTCLDY    52  48  87 NW2       29.55F
SIOUX LOOKOUT  NOT AVBL
TORONTO        TSTM      68  66  94 SW7       29.71F
BIG TROUT LK   LGT RAIN  54  52  94 E8        29.53S
PICKLE LAKE    NOT AVBL
DRYDEN         CLOUDY    54  48  82 W9        29.53F
KENORA         LGT RAIN  52  52 100 W6        29.55S
$$
                *** MANITOBA***

CITY           SKY/WX    TMP DP  RH WIND       PRES   REMARKS
BRANDON        CLOUDY    54  48  82 NW22G31   29.79R
DAUPHIN        CLOUDY    55  50  82 NW14G21   29.79R
ISLAND LAKE    MOCLDY    57  52  82 N8        29.54S
PILOT MOUND      N/A     54  52  94 NW13        N/A
THE PAS        LGT RAIN  48  45  87 NW21G28   29.78F
THOMPSON       MOCLDY    45  41  87 NE12G18   29.73R
WINNIPEG       MOCLDY    54  54 100 W7        29.65R
LYNN LAKE      LGT RAIN  45  41  87 NE12G20   29.87R
CHURCHILL      MOCLDY    39  36  87 N20       29.86R
GILLAM         CLOUDY    43  39  87 NE16G25   29.72S
$$
                ***SASKATCHEWAN***

CITY           SKY/WX    TMP DP  RH WIND       PRES   REMARKS
ESTEVAN        MOCLDY    50  46  87 NW15G22   29.99S
KINDERSLEY     PTCLDY    41  37  87 W8        30.16R
LLOYDMINSTER   CLEAR     39  37  93 W5        30.16S
PRINCE ALBERT  PTCLDY    45  39  81 NW9G17    30.03S
REGINA         MOCLDY    48  41  76 NW15G21   30.04S
YORKTON        CLOUDY    50  43  76 NW18G28   29.91R



USA.gov is the U.S. government's official web portal to all federal, state and local government web resources and services.